Simultaneous Nadir Overpasses (SNOs) Predictions

Prediction of SNOs between NOAA-19 and TERRA Satellite Orbit:

Table of predicted SNOs for the next 14.0 days since TLE Epoch: 4/9/2016
Index Date (NOAA-19) Time (NOAA-19) Lat,Lon (NOAA-19) SZA (NOAA-19 ) Date (TERRA) Time (TERRA) Lat,Lon (TERRA) SZA (TERRA ) Distance(km) Time Diff (sec)
1 04/09/2016 08:03:18 -73.49,-114.49 114.29 04/09/2016 08:04:19 -73.50,-114.51 114.28 1.19 61
2 04/09/2016 08:54:16 73.39, 52.98 65.61 04/09/2016 08:53:46 73.41, 52.95 65.62 2.21 30
3 04/11/2016 13:37:23 73.48, -17.96 64.89 04/11/2016 13:38:02 73.47, -17.99 64.88 2.10 39
4 04/11/2016 14:28:24 -73.39, 149.49 115.21 04/11/2016 14:27:31 -73.40, 149.51 115.21 1.00 53
5 04/13/2016 19:11:31 -73.46, 78.60 115.93 04/13/2016 19:11:47 -73.45, 78.53 115.95 2.61 16
6 04/13/2016 20:02:27 73.32,-113.81 63.93 04/13/2016 20:01:14 73.36,-114.01 63.95 7.32 73
7 04/15/2016 23:54:47 -73.97, 6.61 116.24 04/15/2016 23:55:56 -73.85, 8.33 116.30 54.53 69
8 04/16/2016 00:45:35 73.47, 175.11 63.29 04/16/2016 00:45:29 73.44, 175.10 63.26 3.40 6
9 04/18/2016 05:28:41 73.53, 104.25 62.58 04/18/2016 05:29:44 73.52, 104.19 62.57 2.51 63
10 04/18/2016 06:19:44 -73.47, -88.36 117.50 04/18/2016 06:19:13 -73.46, -88.31 117.51 1.94 31
11 04/20/2016 11:02:50 -73.50,-159.18 118.21 04/20/2016 11:03:28 -73.52,-159.24 118.20 2.61 38
12 04/20/2016 11:53:46 73.43, 8.25 61.72 04/20/2016 11:52:55 73.42, 8.20 61.70 1.98 51
13 04/22/2016 16:36:52 73.50, -62.62 61.04 04/22/2016 16:37:09 73.53, -62.65 61.07 3.09 17




NCC Satellite Simultaneous Nadir Overpasses (SNOs) Prediction Service
